sat.trackr.live / text

‹ back to catalog

S-NET A

NORAD 43188 · 2018-014J

PAYLOAD ACTIVE UNKNOWN

§ Identity

Operator
Country
GER
Launch date
2018-02-01
Launch site
VOSTO
Launch vehicle
Mass (kg)
RCS (m²)

External: N2YO · Heavens-Above · Gunter

§ Orbital elements

Epoch: 2026-09-13T23:28:47.889120Z

Period
94.90 min
Inclination
97.5270°
Eccentricity
0.0010323
Mean motion
15.17380312 rev/d
Perigee alt
506.6 km
Apogee alt
520.9 km
Semi-major
6,891.9 km
B*
1.9633e-4
RAAN
161.4238°
Arg perigee
70.5745°
Mean anomaly
289.6603°
Rev number
47,222

§ Raw data

S-NET A1 43188U 18014J   26256.97833205  .00003858  00000+0  19633-3 0  99942 43188  97.5270 161.4238 0010323  70.5745 289.6603 15.17380312472220

JSON: /api/v1/satellites/43188 · /tle

For live sub-satellite position, see the globe view (requires WebGL).

§ Visibility from observer

Set your observer location to see the next 7 days of passes ≥ 10°. The values pass through the URL so the page stays shareable.

No JS? Fill the form by hand. The geolocation button needs JavaScript.

§ Radio — SatNOGS DB

ModeDescriptionDownlinkUplink
AFSK TUBiX10 AFSK 1k2 TLM 435.950 MHz
FM S-Band Downlink 2.263 GHz

2 transmitters · refreshed weekly from db.satnogs.org